TimeCDT,TemperatureF,Dew PointF,Humidity,Sea Level PressureIn,VisibilityMPH,Wind Direction,Wind SpeedMPH,Gust SpeedMPH,PrecipitationIn,Events,Conditions,WindDirDegrees,DateUTC
12:52 AM,30.9,26.1,82,30.36,10.0,Calm,Calm,-,N/A,,Clear,0,2013-03-27 05:52:00
1:52 AM,28.0,25.0,88,30.36,10.0,West,3.5,-,N/A,,Clear,280,2013-03-27 06:52:00
2:52 AM,28.0,24.1,85,30.36,10.0,West,3.5,-,N/A,,Clear,280,2013-03-27 07:52:00
3:52 AM,27.0,24.1,89,30.35,10.0,Calm,Calm,-,N/A,,Clear,0,2013-03-27 08:52:00
4:52 AM,26.1,24.1,92,30.37,10.0,Calm,Calm,-,N/A,,Scattered Clouds,0,2013-03-27 09:52:00
5:52 AM,26.1,23.0,88,30.38,10.0,Calm,Calm,-,N/A,,Clear,0,2013-03-27 10:52:00
6:52 AM,24.1,21.9,91,30.38,10.0,Calm,Calm,-,N/A,,Clear,0,2013-03-27 11:52:00
7:52 AM,28.9,26.1,89,30.40,10.0,Calm,Calm,-,N/A,,Clear,0,2013-03-27 12:52:00
8:52 AM,36.0,27.0,70,30.41,10.0,Calm,Calm,-,N/A,,Clear,0,2013-03-27 13:52:00
9:52 AM,39.0,21.9,50,30.42,10.0,Calm,Calm,-,N/A,,Clear,0,2013-03-27 14:52:00
10:52 AM,41.0,21.9,47,30.41,10.0,Variable,3.5,-,N/A,,Clear,0,2013-03-27 15:52:00
11:52 AM,44.1,25.0,47,30.41,10.0,NNW,6.9,-,N/A,,Clear,340,2013-03-27 16:52:00
12:52 PM,46.0,26.1,46,30.39,10.0,NW,11.5,16.1,N/A,,Clear,310,2013-03-27 17:52:00
1:52 PM,46.9,26.1,44,30.37,10.0,North,4.6,-,N/A,,Clear,10,2013-03-27 18:52:00
2:52 PM,48.9,27.0,43,30.35,10.0,North,9.2,-,N/A,,Clear,360,2013-03-27 19:52:00
3:52 PM,50.0,26.1,39,30.33,10.0,North,8.1,-,N/A,,Clear,360,2013-03-27 20:52:00
4:52 PM,50.0,25.0,38,30.32,10.0,NNW,8.1,-,N/A,,Clear,330,2013-03-27 21:52:00
5:52 PM,48.0,25.0,41,30.33,10.0,NNW,9.2,-,N/A,,Clear,340,2013-03-27 22:52:00
6:52 PM,44.1,26.1,49,30.32,10.0,NNE,5.8,-,N/A,,Clear,20,2013-03-27 23:52:00
7:52 PM,44.1,25.0,47,30.33,10.0,North,3.5,-,N/A,,Clear,350,2013-03-28 00:52:00
8:52 PM,41.0,26.1,55,30.33,10.0,Calm,Calm,-,N/A,,Clear,0,2013-03-28 01:52:00
9:52 PM,39.9,27.0,60,30.33,10.0,Calm,Calm,-,N/A,,Partly Cloudy,0,2013-03-28 02:52:00
10:52 PM,36.0,28.0,73,30.33,10.0,Calm,Calm,-,N/A,,Partly Cloudy,0,2013-03-28 03:52:00
11:52 PM,37.0,28.0,70,30.33,10.0,Calm,Calm,-,N/A,,Mostly Cloudy,0,2013-03-28 04:52:00